Theta_e
310 312 314 314 314 314 314 314 315 315 313 312 311 310 307 308 310 311 312 315 313 315 322 324 325 332 337 345 347 350 353 356 352 351 351 348 347 347 346 346 344 346 342 343 344
313 312 312 313 314 314 314 314 314 315 315 314 312 312 310 308 309 310 311 313 312 316 322 324 328 334 342 344 342 349 353 351 347 346 347 348 347 346 346 346 347 347 345 344 343
312 312 313 312 313 313 314 314 314 315 316 314 314 312 311 309 318 321 317 314 312 319 321 323 328 337 343 342 345 349 351 350 349 344 341 346 347 346 346 346 344 347 345 342 343
311 311 311 312 313 312 313 314 315 315 317 315 315 312 311 316 324 321 317 315 313 319 319 323 328 341 344 345 345 351 349 348 348 345 346 347 348 346 345 346 344 344 342 341 343
311 311 311 311 311 312 312 314 315 316 319 318 316 314 315 320 321 320 319 314 315 317 319 324 330 340 345 340 341 347 350 349 349 349 346 347 349 346 345 345 344 343 342 343 344
311 311 311 311 311 311 312 315 316 318 321 320 317 315 319 324 323 316 318 314 317 317 318 326 333 336 336 341 344 346 348 349 349 349 347 346 346 346 348 345 345 344 344 344 345
311 311 311 311 310 311 313 316 318 319 321 321 318 318 321 324 322 321 319 318 315 316 318 321 328 333 332 345 346 346 350 350 349 349 349 345 345 346 345 347 344 345 345 346 346
309 309 310 310 310 311 315 317 319 320 321 322 319 320 321 322 321 322 321 318 315 315 316 320 324 330 336 347 348 350 349 351 349 349 349 348 353 344 341 346 345 345 345 345 346
309 310 310 309 310 313 317 320 320 321 321 322 322 323 325 322 322 323 323 323 318 316 315 322 323 331 340 346 346 347 348 348 352 347 349 351 353 345 344 343 344 345 345 345 346
312 312 311 309 311 315 320 320 320 321 321 321 322 324 323 324 322 322 322 317 318 316 316 320 329 333 337 343 342 342 342 346 352 349 350 351 351 346 345 344 345 346 344 344 345
312 313 311 309 313 319 320 321 324 324 323 324 324 323 323 323 320 322 320 315 315 316 319 322 328 332 334 338 335 337 340 346 347 348 350 350 350 349 347 345 344 347 346 343 344
312 313 310 310 315 319 321 322 321 321 325 323 323 323 323 324 322 323 320 321 317 319 320 324 326 330 332 337 336 336 342 346 347 346 348 348 350 350 347 347 345 346 347 345 344
312 314 310 311 317 319 320 320 321 321 326 324 324 324 324 324 323 323 323 322 321 320 320 322 325 329 330 332 334 336 339 342 343 347 346 349 352 351 346 346 345 345 346 346 344
313 315 310 313 318 319 320 320 322 322 329 326 326 325 324 323 323 322 323 323 322 322 322 323 326 328 330 331 333 335 336 342 342 344 348 347 351 354 348 350 346 344 347 346 344
313 316 311 316 318 319 320 321 322 321 329 326 325 323 323 324 323 323 322 322 323 323 323 324 325 328 329 330 330 334 337 341 341 343 344 347 352 354 347 352 350 347 347 346 343
313 316 314 314 317 318 320 320 322 329 328 327 325 325 325 325 323 322 322 322 322 323 323 324 323 326 328 329 330 335 338 341 341 342 344 345 349 350 351 350 348 348 346 347 343
313 316 316 314 320 319 320 322 329 326 324 326 327 327 327 326 324 324 324 324 324 324 324 323 323 323 325 327 329 333 335 338 340 342 344 346 349 348 345 343 345 346 347 346 345
313 316 317 318 318 319 320 328 327 324 325 325 326 328 328 326 326 325 324 324 325 325 325 324 324 324 326 327 330 332 333 334 341 345 346 347 349 349 341 342 340 342 344 345 345
313 317 318 318 319 320 324 327 325 325 325 325 327 328 328 327 328 325 325 326 327 327 328 325 326 327 330 327 330 331 333 333 336 340 342 343 346 345 339 345 343 343 343 344 345
313 320 322 319 321 322 327 323 326 324 324 324 327 327 329 328 328 326 326 327 327 326 326 327 330 332 335 335 332 335 333 335 335 343 345 341 343 344 345 349 346 344 345 344 346
315 321 322 321 321 325 327 326 325 324 324 324 324 327 327 328 329 327 328 329 328 327 325 328 329 333 337 339 337 336 336 335 334 337 346 343 346 343 347 349 347 343 344 345 345
315 323 322 321 325 326 327 325 323 324 322 323 324 326 327 327 329 329 328 330 326 326 328 327 329 330 333 330 330 337 338 335 336 338 340 342 338 344 346 347 346 342 344 345 344
319 321 322 321 327 327 325 324 325 324 324 322 323 323 326 327 328 327 328 326 326 327 329 327 329 330 331 331 331 332 334 336 334 337 338 337 338 344 345 346 347 347 344 344 345
318 323 323 323 324 327 326 326 326 323 323 321 323 324 326 326 326 328 327 327 326 327 322 324 328 329 330 332 332 332 335 334 333 333 332 332 335 341 347 346 345 346 347 346 344
317 321 324 326 326 325 327 327 326 324 323 322 325 324 324 325 325 326 326 327 326 323 326 328 331 330 332 332 331 332 334 334 335 336 336 340 339 346 346 343 341 341 345 346 346
320 321 325 328 328 328 323 327 326 325 323 323 324 323 324 324 324 326 326 326 326 327 327 326 331 331 333 333 334 331 331 331 336 336 338 340 343 343 341 340 338 338 341 347 347
316 318 321 323 328 329 327 326 326 324 321 321 323 324 324 324 324 324 323 325 326 327 327 327 328 330 331 332 331 334 334 334 335 337 337 337 346 342 341 339 336 334 333 336 341
Wind_Speed
10 9 9 10 11 11 12 12 12 11 11 8 6 4 3 4 5 5 5 6 9 12 12 9 6 6 4 2 2 1 2 5 4 5 6 5 6 5 5 11 8 3 9 22 24
10 10 9 10 10 10 11 12 12 12 10 10 7 5 3 2 1 2 6 9 10 12 11 11 9 8 5 2 2 3 2 4 6 8 4 4 2 5 7 11 10 12 16 23 23
8 8 9 10 9 10 11 11 12 12 11 9 8 5 3 2 5 3 4 10 12 13 9 10 8 7 5 3 3 2 2 6 8 14 8 2 3 3 10 7 11 15 23 23 21
7 8 8 9 10 10 10 10 12 12 11 9 8 5 3 7 3 1 2 11 13 14 8 9 11 9 4 3 4 6 8 4 8 13 3 7 2 4 3 6 5 17 21 22 19
7 8 8 9 9 10 9 10 12 13 11 8 7 4 7 3 6 2 5 11 14 11 9 9 12 7 5 3 4 5 7 8 6 6 9 4 5 3 7 5 16 19 20 19 17
7 8 8 9 9 9 9 11 12 13 10 8 6 6 6 6 6 6 9 14 10 9 8 9 7 2 3 2 3 7 10 11 9 8 10 7 4 5 6 9 16 18 18 18 15
8 8 8 8 9 8 8 10 13 11 9 9 9 9 5 7 8 11 9 8 9 8 7 8 5 6 2 6 12 13 12 10 6 5 6 14 3 2 4 6 14 17 17 15 14
9 9 9 8 7 6 8 10 11 8 8 7 8 10 7 4 5 7 8 6 8 5 6 6 4 3 4 9 6 5 7 6 5 7 8 8 5 14 17 7 14 18 17 15 14
10 10 10 8 6 5 8 11 7 3 6 5 5 3 8 2 1 5 4 3 8 6 5 9 5 6 8 12 8 7 3 3 6 5 5 10 3 20 15 13 12 18 18 16 15
11 11 10 7 3 4 9 6 2 2 2 3 5 3 4 5 3 7 6 7 7 10 8 10 10 10 9 10 8 8 4 3 5 7 8 7 3 14 18 17 17 17 19 18 17
13 12 10 4 1 4 10 5 3 2 4 4 4 3 6 5 6 8 7 8 11 11 9 15 11 14 15 11 5 2 2 1 4 8 8 7 6 11 21 19 19 16 19 21 19
13 12 9 1 4 3 8 5 6 4 1 2 0 1 3 4 7 10 9 4 7 8 6 9 14 13 2 3 5 4 2 4 5 6 7 4 8 10 14 22 22 22 23 22 22
13 12 6 3 5 2 4 5 11 7 5 4 2 1 2 5 4 10 10 4 6 8 12 11 12 7 8 10 10 8 5 3 6 7 8 6 10 12 12 15 17 28 25 26 24
12 10 3 5 4 1 1 10 12 5 5 6 6 5 5 2 5 7 8 2 5 6 8 8 4 11 11 12 11 10 4 2 1 6 4 4 2 12 14 16 17 30 26 25 25
11 8 1 9 4 1 3 9 9 2 2 3 5 3 3 5 7 9 8 5 3 7 8 6 8 12 12 11 9 3 1 5 5 8 9 8 7 7 14 17 19 27 30 28 26
10 6 2 8 5 5 4 10 3 7 3 4 3 4 7 5 5 9 9 7 1 5 8 1 2 7 12 12 10 4 6 5 6 7 10 3 9 6 8 16 16 27 30 29 28
10 5 3 7 5 5 5 4 6 3 3 4 2 3 3 7 7 9 9 9 5 8 9 10 12 9 7 11 10 11 11 8 6 6 6 2 6 8 3 3 11 19 30 30 29
8 4 5 7 8 6 4 7 4 2 2 3 2 4 5 5 5 5 7 7 5 7 3 7 10 14 13 16 10 15 16 10 4 6 6 3 5 7 8 7 11 16 20 30 32
6 4 6 8 7 6 7 8 1 2 1 2 6 5 6 6 3 8 3 1 3 3 6 4 3 8 6 12 10 13 11 13 5 12 6 6 5 8 3 8 2 10 15 25 35
5 4 6 9 7 4 7 2 4 1 2 5 4 3 3 5 6 6 6 4 1 2 5 2 3 7 7 6 9 11 9 9 9 4 5 5 2 8 11 10 5 7 9 17 30
2 6 6 9 8 7 7 4 4 4 3 3 2 4 0 1 4 5 5 6 3 2 4 5 6 7 10 10 9 8 11 9 2 6 3 3 3 7 8 9 10 4 7 15 22
1 7 5 12 9 5 7 4 1 5 5 4 3 4 4 0 4 5 3 4 4 3 3 4 6 6 6 3 4 9 12 12 6 8 3 5 2 5 6 8 12 4 4 5 19
6 3 5 9 7 8 5 6 5 7 9 7 5 3 1 3 4 3 2 3 3 2 6 3 4 6 12 10 6 8 7 12 12 11 12 9 4 5 6 7 11 10 2 5 15
4 4 7 9 8 9 10 10 9 7 7 5 2 4 6 7 4 2 5 3 0 2 3 4 4 9 7 8 4 4 7 8 12 12 12 6 2 5 9 9 13 12 7 1 8
3 0 5 7 12 11 7 3 12 8 9 8 6 9 5 4 5 6 4 6 5 2 2 5 6 5 4 2 4 5 0 1 5 8 8 9 3 9 10 8 11 12 8 3 7
4 4 3 8 5 11 9 12 12 11 10 12 10 10 6 4 3 2 5 4 4 3 1 2 1 6 3 3 3 9 5 4 6 1 0 2 4 7 7 10 12 14 12 2 6
4 4 4 3 8 10 12 15 11 5 10 10 11 8 9 5 1 1 1 2 2 5 1 4 1 5 5 6 4 10 9 5 3 2 5 8 8 2 4 7 10 12 12 12 10
Wind_Direction
38 35 32 30 31 28 25 22 18 11 7 357 348 339 306 258 247 237 241 218 201 185 183 181 181 182 186 174 181 166 152 155 165 142 110 98 124 92 103 139 138 113 149 151 152
31 29 22 19 18 18 17 17 16 11 3 357 351 348 337 284 246 246 222 205 191 177 176 181 187 183 199 175 173 281 139 135 161 143 164 63 65 123 141 140 133 117 126 147 150
20 19 13 9 6 6 6 10 11 9 6 359 353 355 5 98 121 108 224 193 180 169 176 193 194 202 212 193 119 82 69 121 148 150 183 170 131 146 148 164 155 150 144 152 157
4 5 2 359 357 356 356 359 2 2 360 2 2 5 82 108 130 349 176 182 172 165 168 184 190 203 196 166 110 109 76 62 137 168 147 166 335 93 93 34 161 152 151 154 163
352 351 351 350 349 346 346 351 355 356 356 358 4 37 123 112 52 360 164 168 168 156 172 183 192 198 192 125 146 118 103 93 128 148 151 48 50 104 55 89 135 144 151 154 160
348 344 343 342 340 339 343 351 353 354 360 7 26 103 104 103 57 62 154 161 170 162 172 174 195 228 125 146 306 119 103 112 130 114 141 101 24 56 23 129 146 152 157 162 161
351 344 338 334 334 336 341 348 347 356 9 31 73 101 64 87 92 74 112 150 157 174 178 190 185 235 164 122 129 131 123 122 137 145 103 116 335 143 231 180 168 173 169 169 168
352 345 338 333 332 333 343 345 341 352 19 52 84 85 82 103 95 89 96 129 162 166 167 188 191 197 241 114 155 198 183 192 124 173 155 188 184 212 210 237 186 181 179 180 174
350 346 339 337 334 341 348 339 344 12 9 65 75 76 93 53 94 190 140 135 161 163 174 174 184 214 173 197 180 187 222 186 155 200 165 209 166 184 195 210 241 192 186 190 185
348 346 341 339 341 3 349 350 40 47 34 57 81 184 116 81 113 146 142 127 151 157 146 183 203 210 214 215 227 173 207 204 163 175 207 199 161 176 191 197 217 228 196 194 196
349 349 344 344 101 31 18 43 355 69 19 350 14 56 113 111 103 147 141 125 141 177 182 190 207 213 192 225 13 39 334 1 124 168 197 206 209 183 195 205 214 229 220 195 204
349 350 345 37 133 74 40 42 29 328 295 35 6 250 197 181 129 155 162 193 184 177 178 179 222 202 73 183 224 231 170 111 120 158 243 200 207 179 196 211 214 226 233 206 202
348 352 352 148 149 104 44 13 0 0 252 126 164 153 126 182 105 166 184 161 180 175 202 205 205 108 200 195 216 227 267 139 348 184 229 246 226 181 204 194 213 220 224 215 200
345 352 358 157 149 152 23 354 355 351 221 110 159 146 168 202 129 160 190 253 190 186 199 226 120 203 205 210 229 220 198 218 222 256 309 226 292 196 186 196 206 206 215 210 205
338 341 315 180 168 215 278 347 347 297 257 102 111 159 186 257 132 174 198 227 178 167 228 131 186 202 214 219 212 337 214 192 273 272 285 212 260 121 178 202 198 211 211 208 202
329 323 262 204 218 239 294 333 324 232 104 139 147 184 202 170 144 148 191 223 79 177 224 74 237 219 225 224 217 111 203 224 255 271 261 206 253 122 164 228 210 203 209 209 205
320 294 219 189 201 236 296 302 232 281 157 136 105 187 197 136 144 179 182 192 218 209 193 188 204 205 230 219 213 208 224 236 233 222 258 84 255 67 80 260 244 206 205 207 208
311 253 215 212 218 244 290 238 253 97 196 127 244 184 172 172 131 161 177 209 191 267 248 230 175 201 199 232 200 216 235 251 255 277 315 161 227 110 44 349 240 237 212 206 213
301 244 239 222 218 226 247 236 128 172 42 254 181 219 148 158 276 203 206 76 32 287 289 197 152 163 224 219 250 191 235 278 278 287 257 170 142 160 21 12 324 207 213 205 206
303 223 216 209 202 204 247 327 161 227 271 228 260 264 213 146 205 230 193 97 58 344 283 53 202 179 160 198 220 277 225 215 230 276 265 149 156 59 356 358 353 245 222 218 196
296 229 218 195 188 228 237 137 173 164 225 248 215 205 300 216 274 190 149 125 1 89 271 308 265 132 175 209 186 187 221 248 256 288 291 283 358 20 4 355 338 246 221 195 199
250 227 197 171 215 234 211 187 179 184 183 203 267 304 276 204 206 214 207 349 11 320 295 17 289 180 157 98 212 297 281 180 181 271 250 224 148 37 27 14 6 43 197 199 202
312 257 192 179 225 211 159 199 236 213 205 196 214 273 258 246 250 249 175 97 358 326 352 358 267 236 186 172 175 214 228 262 279 127 253 269 94 79 39 21 29 20 11 209 189
297 221 183 207 252 274 194 215 210 211 234 222 208 230 209 217 211 242 223 132 171 353 355 263 264 290 298 343 110 177 228 234 261 259 255 226 348 61 37 25 9 5 1 284 206
263 235 328 192 210 223 225 233 217 197 219 209 193 232 221 231 227 232 231 188 176 107 252 293 276 282 319 281 242 143 115 221 259 339 315 75 58 42 24 8 17 0 351 199 154
293 318 291 281 232 220 184 218 234 232 202 203 235 196 209 246 266 253 250 236 290 162 282 283 257 259 173 137 242 217 208 146 261 57 103 338 105 51 35 42 29 18 14 121 162
303 294 288 208 220 221 212 230 225 224 222 246 216 202 216 235 202 37 300 319 358 292 305 287 286 249 233 174 225 218 189 207 276 172 301 296 69 111 62 51 38 28 23 19 54